Weather History for Montgomery, AL

Change the Weather History Date:

Friday, June 28, 2013

  Actual Average Record
Temperature  
Mean Temperature 83 °F 81 °F  
Max Temperature 94 °F 91 °F 105 °F (1954)
Min Temperature 72 °F 70 °F 56 °F (1968)
Cooling Degree Days 18 16  
Month to date cooling degree days 459 387  
Year to date cooling degree days 818 726  
Since 1 June cooling degree days 459 387  
Growing Degree Days 33 (Base 50)    
Moisture  
Dew Point 72 °F    
Average Humidity 74    
Maximum Humidity 87    
Minimum Humidity 60    
Precipitation  
Precipitation 0.46 in 0.17 in 3.91 in (1957)
Month to date precipitation 3.79 3.73  
Year to date precipitation 29.50 27.17  
Sea Level Pressure  
Sea Level Pressure 29.82 in    
Wind  
Wind Speed 6 mph (SW)    
Max Wind Speed 23 mph    
Max Gust Speed 36 mph    
Visibility 9 miles    
Events Rain , Thunderstorm    
T = Trace of Precipitation, MM = Missing Value Source: NWS Daily Summary

Daily Weather History Graph

Daily Weather History Graph

Search for Another Location

Airport:

Trip Planner

Search our weather history database for the weather conditions in past years. The results will help you decide how hot, cold, wet, or windy it might be!

Date:

Astronomy

Jun. 28, 2013 Rise Set
Actual Time 5:41 AM CDT 7:56 PM CDT
Civil Twilight 5:13 AM CDT 8:24 PM CDT
Nautical Twilight 4:38 AM CDT 8:59 PM CDT
Astronomical Twilight 4:00 AM CDT 9:37 PM CDT
Moon 11:48 PM CDT (6/28) 11:26 AM CDT (6/28)
Length of Visible Light 15h 11m
Length of Day
14h 15m
Waning Gibbous, 66% of the Moon is Illuminated
Jun 28
Waning Gibbous
Jun 29
Last Quarter
Jul 8
New
Jul 15
First Quarter
Jul 22
Full

Hourly Weather History & Observations

Time (CDT) Temp. Heat Index Dew Point Humidity Pressure Visibility Wind Dir Wind Speed Gust Speed Precip Events Conditions
12:19 AM 75.2 °F - 69.8 °F 83% 29.93 in 2.0 mi NNW 13.8 mph 32.2 mph 0.14 in Rain , Thunderstorm Heavy Thunderstorms and Rain
12:26 AM 75.2 °F - 69.8 °F 83% 29.92 in 4.0 mi WNW 8.1 mph 18.4 mph 0.25 in Rain , Thunderstorm Thunderstorms and Rain
12:53 AM 73.9 °F - 69.1 °F 85% 29.89 in 10.0 mi WNW 6.9 mph - 0.26 in Thunderstorm Scattered Clouds
1:53 AM 73.0 °F - 69.1 °F 87% 29.87 in 10.0 mi SSW 3.5 mph - N/A   Clear
2:53 AM 73.0 °F - 70.0 °F 90% 29.85 in 10.0 mi Calm Calm - N/A   Clear
3:53 AM 73.0 °F - 70.0 °F 90% 29.84 in 10.0 mi SSW 3.5 mph - N/A   Clear
4:53 AM 75.0 °F - 72.0 °F 90% 29.85 in 10.0 mi SW 4.6 mph - N/A   Clear
5:53 AM 75.9 °F - 72.0 °F 87% 29.87 in 10.0 mi SSW 5.8 mph - N/A   Clear
6:53 AM 78.1 °F - 73.0 °F 84% 29.88 in 10.0 mi SW 6.9 mph - N/A   Partly Cloudy
7:53 AM 81.0 °F 86.7 °F 75.0 °F 82% 29.88 in 10.0 mi SW 8.1 mph - N/A   Partly Cloudy
8:53 AM 84.9 °F 94.1 °F 75.9 °F 74% 29.87 in 10.0 mi West 8.1 mph - N/A   Clear
9:53 AM 89.1 °F 99.1 °F 75.0 °F 63% 29.85 in 10.0 mi West 8.1 mph - N/A   Clear
10:53 AM 90.0 °F 100.2 °F 75.0 °F 61% 29.86 in 10.0 mi West 10.4 mph - N/A   Clear
11:53 AM 91.0 °F 102.9 °F 75.9 °F 61% 29.83 in 10.0 mi WSW 9.2 mph - N/A   Clear
12:53 PM 91.9 °F 103.9 °F 75.9 °F 59% 29.80 in 10.0 mi WSW 9.2 mph - N/A   Scattered Clouds
1:27 PM 82.4 °F 86.3 °F 69.8 °F 66% 29.82 in 10.0 mi NNW 19.6 mph 26.5 mph N/A Thunderstorm Thunderstorm
1:53 PM 77.0 °F - 71.1 °F 82% 29.80 in 6.0 mi NNE 4.6 mph - N/A Rain , Thunderstorm Light Thunderstorms and Rain
2:53 PM 75.0 °F - 70.0 °F 84% 29.81 in 10.0 mi SSW 9.2 mph - 0.02 in Thunderstorm Thunderstorm
3:03 PM 73.4 °F - 69.8 °F 88% 29.82 in 10.0 mi SSW 6.9 mph - N/A   Partly Cloudy
3:53 PM 73.9 °F - 69.1 °F 85% 29.76 in 10.0 mi SSW 4.6 mph - 0.01 in Rain Light Rain
4:53 PM 75.9 °F - 71.1 °F 85% 29.75 in 10.0 mi SSW 9.2 mph - 0.00 in   Clear
5:53 PM 79.0 °F - 71.1 °F 77% 29.78 in 10.0 mi Calm Calm - N/A   Clear
6:53 PM 78.1 °F - 71.1 °F 79% 29.76 in 10.0 mi South 4.6 mph - N/A   Clear
7:53 PM 77.0 °F - 72.0 °F 84% 29.77 in 10.0 mi South 3.5 mph - N/A   Scattered Clouds
8:53 PM 75.9 °F - 71.1 °F 85% 29.75 in 10.0 mi South 8.1 mph - N/A   Clear
9:39 PM 75.2 °F - 71.6 °F 89% 29.79 in 1.8 mi SSW 11.5 mph 21.9 mph 0.15 in Rain Heavy Rain
9:51 PM 73.4 °F - 69.8 °F 88% 29.77 in 3.0 mi SSW 9.2 mph 19.6 mph 0.31 in Rain Light Rain
9:52 PM 73.9 °F - 70.0 °F 87% 29.76 in 3.0 mi SSW 9.2 mph 19.6 mph 0.31 in Rain Light Rain
10:53 PM 73.9 °F - 71.1 °F 91% 29.77 in 10.0 mi Calm Calm - 0.01 in   Scattered Clouds
11:53 PM 73.0 °F - 69.1 °F 87% 29.77 in 10.0 mi South 4.6 mph - 0.00 in Rain Light Rain